SL-14 DEB, 43320

Orbit data source: Space-Track

SL-14 DEB, 43320 is space debris in LEO originally from a launch on Tue, 02 Dec 1986 UTC launched from the Plesetsk Missile And Space Complex (PKMTR). Debris objects in space refer to the collection of defunct objects orbiting the Earth. Examples of debris include non-operational satellites, rocket bodies, and fragments generated from explosions, collisions, or faulty payload assembly.

Loading next visibility...
Identifier
43320, 1986-094C
Orbit
LEO
Last TLE update
1 week ago
Origin
Manufacturer
Unknown
Mission
Spacecraft
Bus & Motor
Unknown
Mass
Unknown
Launch date (UTC)
1986-12-02 (39 years ago)
Launch vehicle
Unknown
Launch site
Plesetsk Missile And Space Complex (PKMTR)
Object type
Payload
Rocket body
Debris
Shape & HBR
Unknown
Radar Cross Section
Small (<0.1 m²)

Expand to show TLE details & history

TLE from 1 week ago
0 SL-14 DEB
1 43320U 86094C   25176.42942515  .00000044  00000-0  25094-3 0  9993
2 43320  82.6052 224.5185 0006070 121.6358 238.5314 12.42160398444478
Epoch: 2025-06-25T10:18Z
TLE epoch observation values (Epoch: 2025-06-25T10:18:22.332Z)
Latitude
-0.00008°
Longitude
156.11432°
Altitude
1,502.658 km
Speed
7.112 km/s
True Right ascension
14h 58m 04s
True Declination
0° 00' 00"
Sunlit
Object was in partial shadow at epoch
Visualization orbit readout
Latitude
82.61818°
Longitude
-123.20796°
Altitude
1,506.407 km
Speed
7.12 km/s
Apparent Right ascension
05h 31m 01s
Apparent Declination
42° 15' 50"
Sunlit
Object is in daylight
Visualization observer readout
Local Sidereal Time
18:03:12
Azimuth
5.995° NNE
Elevation
-7.497°
Doppler factor
1
Orbital elements
Apogee altitude
1,499.586 km
Perigee altitude
1,490.028 km
Semi-major axis
7,872.944 km
Eccentricity
0.00061
Inclination
82.6052°
RAAN
224.5185°
Arg. of periapsis
121.6358°
True anomaly
Unknown
Mean anomaly
238.5314°
Eccentric anomaly
Unknown
Mean motion
3.10697 °/min
Orbital period
115.87 mins
BSTAR
0.00025094
Loading maneuver chart data...
Loading SW <> Apogee altitude chart data...
Loading historical data...
Loading historical data...
Loading historical data...
Loading historical data...
Loading historical data...
Loading historical data...
Loading historical data...
Other satellites on launch #94 in the year 1986 (1986-12-02 UTC)

SL-14 DEB Visibility forecast

Observer location: undefined°, undefined°

Span
Click to sort rows by Start time (UTC) header in descending order
Start Az.
Max El. time (UTC)
Max El. Az.
Max El.
End time (UTC)
End Az.
9 mins2025-07-03 12:14:32.888Z27.163° NE2025-07-03 12:19:32.888Z63.45° ENE15.459°2025-07-03 12:23:32.888Z92.56° ESE
15 mins2025-07-03 14:10:32.888Z355.267° N2025-07-03 14:17:32.888Z77.521° E44.677°2025-07-03 14:25:32.888Z169.971° S
9 mins2025-07-03 16:09:32.888Z311.681° NW2025-07-03 16:13:32.888Z279.565° WNW18.603°2025-07-03 16:18:32.888Z242.418° WSW
9 mins2025-07-04 01:17:32.888Z111.295° ESE2025-07-04 01:21:32.888Z81.23° E17.629°2025-07-04 01:26:32.888Z43.285° NE
15 mins2025-07-04 03:10:32.888Z188.382° SSW2025-07-04 03:17:32.888Z267.522° W44.886°2025-07-04 03:25:32.888Z6.336° NNE
8 mins2025-07-04 05:12:32.888Z272.644° WNW2025-07-04 05:15:32.888Z295.689° NW16.309°2025-07-04 05:20:32.888Z332.714° NNW
|